Retour au catalogue

STARLINK-3835

ActifCommunicationsVLEO
NORAD 52476·PAYLOAD·🇺🇸 United States

Lancé May 6, 2022 depuis Cape Canaveral Space Force Station

Loading…

Prochains Passages (prochaines 24 heures)

TLE

FraisSource: CelesTrak SupGP

Époque: Sep 14, 2026, 22:14 UTC

1 52476C 22049AB  26257.92687500  .00049982  00000+0  14301-2 0  2579
2 52476  53.1577 270.2815 0001278  92.0755 178.0467 15.35371937    13

Suivez STARLINK-3835 en temps réel avec AllMySat

Download on the App Store